01.01.2019 00:15;103620
01.01.2019 00:30;101120
01.01.2019 00:45;98727
01.01.2019 01:00;95807
01.01.2019 01:15;93317
01.01.2019 01:30;90920
01.01.2019 01:45;88449
01.01.2019 02:00;86326
01.01.2019 02:15;84623
01.01.2019 02:30;83234
01.01.2019 02:45;82083
01.01.2019 03:00;80563
01.01.2019 03:15;79817
01.01.2019 03:30;78864
01.01.2019 03:45;77712
01.01.2019 04:00;76862
01.01.2019 04:15;76246
01.01.2019 04:30;75294
01.01.2019 04:45;75215
01.01.2019 05:00;74252
01.01.2019 05:15;75352
01.01.2019 05:30;73252
01.01.2019 05:45;70082
01.01.2019 06:00;67327
01.01.2019 06:15;64407
01.01.2019 06:30;64200
01.01.2019 06:45;64067
01.01.2019 07:00;64326
01.01.2019 07:15;64983
01.01.2019 07:30;65617
01.01.2019 07:45;66949
01.01.2019 08:00;68540
01.01.2019 08:15;70532
01.01.2019 08:30;70460
01.01.2019 08:45;71830
01.01.2019 09:00;73746
01.01.2019 09:15;76805
01.01.2019 09:30;79656
01.01.2019 09:45;83118
01.01.2019 10:00;86447
01.01.2019 10:15;89511
01.01.2019 10:30;92454
01.01.2019 10:45;96076
01.01.2019 11:00;99673
01.01.2019 11:15;102605
01.01.2019 11:30;107137
01.01.2019 11:45;110145
01.01.2019 12:00;113335
01.01.2019 12:15;114431
01.01.2019 12:30;114716
01.01.2019 12:45;115054
01.01.2019 13:00;113620
01.01.2019 13:15;112755
01.01.2019 13:30;113096
01.01.2019 13:45;113339
01.01.2019 14:00;113373
01.01.2019 14:15;113050
01.01.2019 14:30;113035
01.01.2019 14:45;111339
01.01.2019 15:00;110092
01.01.2019 15:15;111149
01.01.2019 15:30;110502
01.01.2019 15:45;110150
01.01.2019 16:00;109983
01.01.2019 16:15;112478
01.01.2019 16:30;114504
01.01.2019 16:45;117946
01.01.2019 17:00;122921
01.01.2019 17:15;130109
01.01.2019 17:30;133457
01.01.2019 17:45;136381
01.01.2019 18:00;137139
01.01.2019 18:15;136971
01.01.2019 18:30;136850
01.01.2019 18:45;136069
01.01.2019 19:00;135269
01.01.2019 19:15;133819
01.01.2019 19:30;132470
01.01.2019 19:45;129426
01.01.2019 20:00;127171
01.01.2019 20:15;125812
01.01.2019 20:30;122162
01.01.2019 20:45;119163
01.01.2019 21:00;116172
01.01.2019 21:15;113106
01.01.2019 21:30;112057
01.01.2019 21:45;117339
01.01.2019 22:00;120802
01.01.2019 22:15;128394
01.01.2019 22:30;125444
01.01.2019 22:45;122022
01.01.2019 23:00;117834
01.01.2019 23:15;113369
01.01.2019 23:30;109345
01.01.2019 23:45;104332
02.01.2019 00:00;99733
02.01.2019 00:15;95795
02.01.2019 00:30;91234
02.01.2019 00:45;87320
02.01.2019 01:00;84071
02.01.2019 01:15;80752
02.01.2019 01:30;78719
02.01.2019 01:45;76491
02.01.2019 02:00;74604
02.01.2019 02:15;74075
02.01.2019 02:30;73433
02.01.2019 02:45;74428
02.01.2019 03:00;75134
02.01.2019 03:15;75450
02.01.2019 03:30;75672
02.01.2019 03:45;76106
02.01.2019 04:00;75814
02.01.2019 04:15;76184
02.01.2019 04:30;76987
02.01.2019 04:45;78200
02.01.2019 05:00;78923
02.01.2019 05:15;81410
02.01.2019 05:30;81265
02.01.2019 05:45;79125
02.01.2019 06:00;78093
02.01.2019 06:15;77450
02.01.2019 06:30;79458
02.01.2019 06:45;82303
02.01.2019 07:00;83836
02.01.2019 07:15;87547
02.01.2019 07:30;89975
02.01.2019 07:45;93469
02.01.2019 08:00;96427
02.01.2019 08:15;97808
02.01.2019 08:30;98896
02.01.2019 08:45;100394
02.01.2019 09:00;102134
02.01.2019 09:15;103732
02.01.2019 09:30;104956
02.01.2019 09:45;105905
02.01.2019 10:00;107323
02.01.2019 10:15;109397
02.01.2019 10:30;108271
02.01.2019 10:45;106932
02.01.2019 11:00;110752
02.01.2019 11:15;113022
02.01.2019 11:30;118949
02.01.2019 11:45;119687
02.01.2019 12:00;121615
02.01.2019 12:15;120617
02.01.2019 12:30;124591
02.01.2019 12:45;118348
02.01.2019 13:00;123076
02.01.2019 13:15;118452
02.01.2019 13:30;116984
02.01.2019 13:45;116717
02.01.2019 14:00;115908
02.01.2019 14:15;112664
02.01.2019 14:30;111431
02.01.2019 14:45;109698
02.01.2019 15:00;109135
02.01.2019 15:15;108754
02.01.2019 15:30;108926
02.01.2019 15:45;108985
02.01.2019 16:00;110116
02.01.2019 16:15;113289
02.01.2019 16:30;116234
02.01.2019 16:45;120121
02.01.2019 17:00;125771
02.01.2019 17:15;135127
02.01.2019 17:30;141986
02.01.2019 17:45;146023
02.01.2019 18:00;148547
02.01.2019 18:15;148926
02.01.2019 18:30;149045
02.01.2019 18:45;147999
02.01.2019 19:00;147787
02.01.2019 19:15;146016
02.01.2019 19:30;143980
02.01.2019 19:45;141926
02.01.2019 20:00;140248
02.01.2019 20:15;137508
02.01.2019 20:30;133473
02.01.2019 20:45;130074
02.01.2019 21:00;126666
02.01.2019 21:15;123238
02.01.2019 21:30;120239
02.01.2019 21:45;125564
02.01.2019 22:00;130470
02.01.2019 22:15;138336
02.01.2019 22:30;135674
02.01.2019 22:45;131488
02.01.2019 23:00;126975
02.01.2019 23:15;121262
02.01.2019 23:30;117219
02.01.2019 23:45;112717
03.01.2019 00:00;108291
03.01.2019 00:15;103696
03.01.2019 00:30;100211
03.01.2019 00:45;97231
03.01.2019 01:00;93571
03.01.2019 01:15;91497
03.01.2019 01:30;89170
03.01.2019 01:45;87227
03.01.2019 02:00;85485
03.01.2019 02:15;84414
03.01.2019 02:30;83882
03.01.2019 02:45;82963
03.01.2019 03:00;81707
03.01.2019 03:15;81260
03.01.2019 03:30;80567
03.01.2019 03:45;80713
03.01.2019 04:00;80425
03.01.2019 04:15;81109
03.01.2019 04:30;81078
03.01.2019 04:45;82249
03.01.2019 05:00;82755
03.01.2019 05:15;85389
03.01.2019 05:30;84773
03.01.2019 05:45;83735
03.01.2019 06:00;82536
03.01.2019 06:15;81877
03.01.2019 06:30;84215
03.01.2019 06:45;86636
03.01.2019 07:00;89283
03.01.2019 07:15;92665
03.01.2019 07:30;95306
03.01.2019 07:45;98582
03.01.2019 08:00;101816
03.01.2019 08:15;104559
03.01.2019 08:30;104382
03.01.2019 08:45;106112
03.01.2019 09:00;108300
03.01.2019 09:15;110132
03.01.2019 09:30;112102
03.01.2019 09:45;112888
03.01.2019 10:00;114732
03.01.2019 10:15;115809
03.01.2019 10:30;116646
03.01.2019 10:45;117189
03.01.2019 11:00;118569
03.01.2019 11:15;120582
03.01.2019 11:30;122734
03.01.2019 11:45;126008
03.01.2019 12:00;127674
03.01.2019 12:15;127354
03.01.2019 12:30;127126
03.01.2019 12:45;126772
03.01.2019 13:00;125060
03.01.2019 13:15;123777
03.01.2019 13:30;122857
03.01.2019 13:45;123557
03.01.2019 14:00;123048
03.01.2019 14:15;121632
03.01.2019 14:30;120412
03.01.2019 14:45;119800
03.01.2019 15:00;119641
03.01.2019 15:15;119404
03.01.2019 15:30;118957
03.01.2019 15:45;118466
03.01.2019 16:00;118319
03.01.2019 16:15;121252
03.01.2019 16:30;124009
03.01.2019 16:45;127521
03.01.2019 17:00;132427
03.01.2019 17:15;141828
03.01.2019 17:30;145228
03.01.2019 17:45;149322
03.01.2019 18:00;151146
03.01.2019 18:15;151784
03.01.2019 18:30;151556
03.01.2019 18:45;150324
03.01.2019 19:00;149506
03.01.2019 19:15;147549
03.01.2019 19:30;145688
03.01.2019 19:45;142819
03.01.2019 20:00;140101
03.01.2019 20:15;137637
03.01.2019 20:30;133459
03.01.2019 20:45;129988
03.01.2019 21:00;126669
03.01.2019 21:15;123085
03.01.2019 21:30;121785
03.01.2019 21:45;126903
03.01.2019 22:00;131771
03.01.2019 22:15;138993
03.01.2019 22:30;136816
03.01.2019 22:45;131848
03.01.2019 23:00;127306
03.01.2019 23:15;122719
03.01.2019 23:30;117920
03.01.2019 23:45;113084
04.01.2019 00:00;108762
04.01.2019 00:15;103971
04.01.2019 00:30;99885
04.01.2019 00:45;96278
04.01.2019 01:00;93364
04.01.2019 01:15;90610
04.01.2019 01:30;88147
04.01.2019 01:45;86263
04.01.2019 02:00;84292
04.01.2019 02:15;84222
04.01.2019 02:30;83052
04.01.2019 02:45;82355
04.01.2019 03:00;82003
04.01.2019 03:15;81744
04.01.2019 03:30;81724
04.01.2019 03:45;81258
04.01.2019 04:00;82132
04.01.2019 04:15;82535
04.01.2019 04:30;83889
04.01.2019 04:45;84681
04.01.2019 05:00;85611
04.01.2019 05:15;87726
04.01.2019 05:30;86879
04.01.2019 05:45;85479
04.01.2019 06:00;83903
04.01.2019 06:15;83180
04.01.2019 06:30;86008
04.01.2019 06:45;87468
04.01.2019 07:00;89990
04.01.2019 07:15;93588
04.01.2019 07:30;97016
04.01.2019 07:45;100022
04.01.2019 08:00;103072
04.01.2019 08:15;106694
04.01.2019 08:30;106899
04.01.2019 08:45;109321
04.01.2019 09:00;110271
04.01.2019 09:15;113065
04.01.2019 09:30;114393
04.01.2019 09:45;115507
04.01.2019 10:00;115165
04.01.2019 10:15;116354
04.01.2019 10:30;118327
04.01.2019 10:45;116372
04.01.2019 11:00;116140
04.01.2019 11:15;116647
04.01.2019 11:30;120730
04.01.2019 11:45;123409
04.01.2019 12:00;124055
04.01.2019 12:15;123746
04.01.2019 12:30;122929
04.01.2019 12:45;123243
04.01.2019 13:00;121485
04.01.2019 13:15;121210
04.01.2019 13:30;120920
04.01.2019 13:45;120174
04.01.2019 14:00;119779
04.01.2019 14:15;119847
04.01.2019 14:30;120213
04.01.2019 14:45;120292
04.01.2019 15:00;119842
04.01.2019 15:15;120885
04.01.2019 15:30;121120
04.01.2019 15:45;120034
04.01.2019 16:00;119757
04.01.2019 16:15;124551
04.01.2019 16:30;128007
04.01.2019 16:45;133216
04.01.2019 17:00;139119
04.01.2019 17:15;144222
04.01.2019 17:30;148041
04.01.2019 17:45;150176
04.01.2019 18:00;150804
04.01.2019 18:15;150984
04.01.2019 18:30;150538
04.01.2019 18:45;148795
04.01.2019 19:00;147668
04.01.2019 19:15;145423
04.01.2019 19:30;142143
04.01.2019 19:45;139878
04.01.2019 20:00;137765
04.01.2019 20:15;134314
04.01.2019 20:30;130924
04.01.2019 20:45;127954
04.01.2019 21:00;124621
04.01.2019 21:15;121629
04.01.2019 21:30;119839
04.01.2019 21:45;125580
04.01.2019 22:00;130065
04.01.2019 22:15;138381
04.01.2019 22:30;135622
04.01.2019 22:45;131928
04.01.2019 23:00;127427
04.01.2019 23:15;122896
04.01.2019 23:30;118487
04.01.2019 23:45;113025
05.01.2019 00:00;109291
05.01.2019 00:15;104164
05.01.2019 00:30;99939
05.01.2019 00:45;95119
05.01.2019 01:00;91486
05.01.2019 01:15;88552
05.01.2019 01:30;85623
05.01.2019 01:45;83244
05.01.2019 02:00;81404
05.01.2019 02:15;80122
05.01.2019 02:30;79219
05.01.2019 02:45;78051
05.01.2019 03:00;77804
05.01.2019 03:15;77514
05.01.2019 03:30;76893
05.01.2019 03:45;77120
05.01.2019 04:00;77343
05.01.2019 04:15;78098
05.01.2019 04:30;78677
05.01.2019 04:45;79718
05.01.2019 05:00;80530
05.01.2019 05:15;82003
05.01.2019 05:30;80882
05.01.2019 05:45;78206
05.01.2019 06:00;76193
05.01.2019 06:15;74619
05.01.2019 06:30;75761
05.01.2019 06:45;78150
05.01.2019 07:00;79800
05.01.2019 07:15;82517
05.01.2019 07:30;85664
05.01.2019 07:45;88606
05.01.2019 08:00;92459
05.01.2019 08:15;96392
05.01.2019 08:30;99576
05.01.2019 08:45;102107
05.01.2019 09:00;106179
05.01.2019 09:15;109767
05.01.2019 09:30;113128
05.01.2019 09:45;116954
05.01.2019 10:00;118510
05.01.2019 10:15;121518
05.01.2019 10:30;123332
05.01.2019 10:45;125145
05.01.2019 11:00;126905
05.01.2019 11:15;129944
05.01.2019 11:30;132382
05.01.2019 11:45;135405
05.01.2019 12:00;134901
05.01.2019 12:15;134160
05.01.2019 12:30;133393
05.01.2019 12:45;131477
05.01.2019 13:00;130175
05.01.2019 13:15;130366
05.01.2019 13:30;127233
05.01.2019 13:45;126857
05.01.2019 14:00;126696
05.01.2019 14:15;125458
05.01.2019 14:30;124740
05.01.2019 14:45;124492
05.01.2019 15:00;123159
05.01.2019 15:15;122291
05.01.2019 15:30;123381
05.01.2019 15:45;121082
05.01.2019 16:00;121714
05.01.2019 16:15;122609
05.01.2019 16:30;124887
05.01.2019 16:45;127988
05.01.2019 17:00;133311
05.01.2019 17:15;142426
05.01.2019 17:30;146023
05.01.2019 17:45;149049
05.01.2019 18:00;150140
05.01.2019 18:15;149559
05.01.2019 18:30;148908
05.01.2019 18:45;149245
05.01.2019 19:00;147315
05.01.2019 19:15;144574
05.01.2019 19:30;142815
05.01.2019 19:45;140107
05.01.2019 20:00;137804
05.01.2019 20:15;134505
05.01.2019 20:30;130307
05.01.2019 20:45;126573
05.01.2019 21:00;123769
05.01.2019 21:15;119796
05.01.2019 21:30;118775
05.01.2019 21:45;123061
05.01.2019 22:00;127338
05.01.2019 22:15;136088
05.01.2019 22:30;134828
05.01.2019 22:45;130566
05.01.2019 23:00;127363
05.01.2019 23:15;122497
05.01.2019 23:30;117701
05.01.2019 23:45;113850
06.01.2019 00:00;108379
06.01.2019 00:15;102841
06.01.2019 00:30;97289
06.01.2019 00:45;93109
06.01.2019 01:00;89584
06.01.2019 01:15;86291
06.01.2019 01:30;83248
06.01.2019 01:45;80854
06.01.2019 02:00;79211
06.01.2019 02:15;78688
06.01.2019 02:30;77132
06.01.2019 02:45;76822
06.01.2019 03:00;75303
06.01.2019 03:15;75241
06.01.2019 03:30;75171
06.01.2019 03:45;75140
06.01.2019 04:00;75051
06.01.2019 04:15;75468
06.01.2019 04:30;76021
06.01.2019 04:45;76228
06.01.2019 05:00;76400
06.01.2019 05:15;76895
06.01.2019 05:30;75052
06.01.2019 05:45;72455
06.01.2019 06:00;70491
06.01.2019 06:15;68307
06.01.2019 06:30;69094
06.01.2019 06:45;71004
06.01.2019 07:00;71500
06.01.2019 07:15;74564
06.01.2019 07:30;76364
06.01.2019 07:45;79757
06.01.2019 08:00;82676
06.01.2019 08:15;86396
06.01.2019 08:30;88277
06.01.2019 08:45;92530
06.01.2019 09:00;96881
06.01.2019 09:15;100673
06.01.2019 09:30;105106
06.01.2019 09:45;108824
06.01.2019 10:00;112689
06.01.2019 10:15;117147
06.01.2019 10:30;120952
06.01.2019 10:45;123258
06.01.2019 11:00;127349
06.01.2019 11:15;130826
06.01.2019 11:30;136140
06.01.2019 11:45;138735
06.01.2019 12:00;140565
06.01.2019 12:15;140352
06.01.2019 12:30;140039
06.01.2019 12:45;137617
06.01.2019 13:00;135870
06.01.2019 13:15;134710
06.01.2019 13:30;133049
06.01.2019 13:45;132157
06.01.2019 14:00;130208
06.01.2019 14:15;128824
06.01.2019 14:30;126566
06.01.2019 14:45;125530
06.01.2019 15:00;124898
06.01.2019 15:15;124004
06.01.2019 15:30;122973
06.01.2019 15:45;121907
06.01.2019 16:00;121597
06.01.2019 16:15;122529
06.01.2019 16:30;125742
06.01.2019 16:45;128743
06.01.2019 17:00;133615
06.01.2019 17:15;141222
06.01.2019 17:30;146346
06.01.2019 17:45;148256
06.01.2019 18:00;149580
06.01.2019 18:15;152019
06.01.2019 18:30;151472
06.01.2019 18:45;148961
06.01.2019 19:00;146980
06.01.2019 19:15;146634
06.01.2019 19:30;143594
06.01.2019 19:45;141428
06.01.2019 20:00;138082
06.01.2019 20:15;135636
06.01.2019 20:30;130300
06.01.2019 20:45;126106
06.01.2019 21:00;122275
06.01.2019 21:15;117696
06.01.2019 21:30;116056
06.01.2019 21:45;120790
06.01.2019 22:00;124414
06.01.2019 22:15;131543
06.01.2019 22:30;128468
06.01.2019 22:45;123073
06.01.2019 23:00;118533
06.01.2019 23:15;113781
06.01.2019 23:30;107791
06.01.2019 23:45;102491
07.01.2019 00:00;97733
07.01.2019 00:15;93808
07.01.2019 00:30;89049
07.01.2019 00:45;85135
07.01.2019 01:00;81917
07.01.2019 01:15;79593
07.01.2019 01:30;76751
07.01.2019 01:45;74948
07.01.2019 02:00;74157
07.01.2019 02:15;73254
07.01.2019 02:30;72833
07.01.2019 02:45;72321
07.01.2019 03:00;72348
07.01.2019 03:15;72986
07.01.2019 03:30;73415
07.01.2019 03:45;73136
07.01.2019 04:00;73878
07.01.2019 04:15;75154
07.01.2019 04:30;76339
07.01.2019 04:45;78533
07.01.2019 05:00;79005
07.01.2019 05:15;82829
07.01.2019 05:30;83577
07.01.2019 05:45;82986
07.01.2019 06:00;84126
07.01.2019 06:15;86594
07.01.2019 06:30;91807
07.01.2019 06:45;96415
07.01.2019 07:00;99480
07.01.2019 07:15;102778
07.01.2019 07:30;104058
07.01.2019 07:45;104505
07.01.2019 08:00;106329
07.01.2019 08:15;108031
07.01.2019 08:30;107832
07.01.2019 08:45;108357
07.01.2019 09:00;108561
07.01.2019 09:15;108996
07.01.2019 09:30;109342
07.01.2019 09:45;109350
07.01.2019 10:00;109668
07.01.2019 10:15;109679
07.01.2019 10:30;110022
07.01.2019 10:45;110864
07.01.2019 11:00;111563
07.01.2019 11:15;113459
07.01.2019 11:30;116134
07.01.2019 11:45;116984
07.01.2019 12:00;117800
07.01.2019 12:15;117847
07.01.2019 12:30;116747
07.01.2019 12:45;116470
07.01.2019 13:00;116170
07.01.2019 13:15;114034
07.01.2019 13:30;112118
07.01.2019 13:45;110184
07.01.2019 14:00;112404
07.01.2019 14:15;111856
07.01.2019 14:30;111198
07.01.2019 14:45;109533
07.01.2019 15:00;107242
07.01.2019 15:15;109345
07.01.2019 15:30;108715
07.01.2019 15:45;109608
07.01.2019 16:00;110755
07.01.2019 16:15;113197
07.01.2019 16:30;117711
07.01.2019 16:45;122000
07.01.2019 17:00;126976
07.01.2019 17:15;135817
07.01.2019 17:30;140883
07.01.2019 17:45;144626
07.01.2019 18:00;146872
07.01.2019 18:15;148166
07.01.2019 18:30;147452
07.01.2019 18:45;146343
07.01.2019 19:00;145681
07.01.2019 19:15;144337
07.01.2019 19:30;141817
07.01.2019 19:45;140002
07.01.2019 20:00;137297
07.01.2019 20:15;135350
07.01.2019 20:30;130601
07.01.2019 20:45;126940
07.01.2019 21:00;123308
07.01.2019 21:15;118688
07.01.2019 21:30;117020
07.01.2019 21:45;121494
07.01.2019 22:00;125463
07.01.2019 22:15;132389
07.01.2019 22:30;129515
07.01.2019 22:45;124180
07.01.2019 23:00;118438
07.01.2019 23:15;114087
07.01.2019 23:30;108284
07.01.2019 23:45;102618
08.01.2019 00:00;98065
08.01.2019 00:15;93984
08.01.2019 00:30;89840
08.01.2019 00:45;85440
08.01.2019 01:00;82636
08.01.2019 01:15;79793
08.01.2019 01:30;77812
08.01.2019 01:45;75679
08.01.2019 02:00;74223
08.01.2019 02:15;73806
08.01.2019 02:30;73763
08.01.2019 02:45;73124
08.01.2019 03:00;72818
08.01.2019 03:15;73569
08.01.2019 03:30;73594
08.01.2019 03:45;73839
08.01.2019 04:00;74242
08.01.2019 04:15;75600
08.01.2019 04:30;77092
08.01.2019 04:45;77797
08.01.2019 05:00;78834
08.01.2019 05:15;81633
08.01.2019 05:30;83060
08.01.2019 05:45;82551
08.01.2019 06:00;82799
08.01.2019 06:15;84804
08.01.2019 06:30;89797
08.01.2019 06:45;94454
08.01.2019 07:00;97989
08.01.2019 07:15;101935
08.01.2019 07:30;103573
08.01.2019 07:45;105087
08.01.2019 08:00;107167
08.01.2019 08:15;107486
08.01.2019 08:30;106439
08.01.2019 08:45;105595
08.01.2019 09:00;105160
08.01.2019 09:15;104637
08.01.2019 09:30;104488
08.01.2019 09:45;104537
08.01.2019 10:00;106469
08.01.2019 10:15;108642
08.01.2019 10:30;109358
08.01.2019 10:45;111138
08.01.2019 11:00;112477
08.01.2019 11:15;114846
08.01.2019 11:30;117222
08.01.2019 11:45;118652
08.01.2019 12:00;120402
08.01.2019 12:15;118049
08.01.2019 12:30;117671
08.01.2019 12:45;118607
08.01.2019 13:00;119830
08.01.2019 13:15;117942
08.01.2019 13:30;118174
08.01.2019 13:45;118760
08.01.2019 14:00;117768
08.01.2019 14:15;115841
08.01.2019 14:30;114520
08.01.2019 14:45;113531
08.01.2019 15:00;113701
08.01.2019 15:15;114399
08.01.2019 15:30;115125
08.01.2019 15:45;114274
08.01.2019 16:00;115848
08.01.2019 16:15;117007
08.01.2019 16:30;119826
08.01.2019 16:45;123319
08.01.2019 17:00;128984
08.01.2019 17:15;137544
08.01.2019 17:30;144388
08.01.2019 17:45;148126
08.01.2019 18:00;149177
08.01.2019 18:15;150147
08.01.2019 18:30;150231
08.01.2019 18:45;149456
08.01.2019 19:00;149039
08.01.2019 19:15;147452
08.01.2019 19:30;144449
08.01.2019 19:45;141018
08.01.2019 20:00;139201
08.01.2019 20:15;135791
08.01.2019 20:30;132327
08.01.2019 20:45;127606
08.01.2019 21:00;124177
08.01.2019 21:15;121019
08.01.2019 21:30;118767
08.01.2019 21:45;122771
08.01.2019 22:00;127552
08.01.2019 22:15;132467
08.01.2019 22:30;130320
08.01.2019 22:45;125539
08.01.2019 23:00;120213
08.01.2019 23:15;114616
08.01.2019 23:30;109539
08.01.2019 23:45;104589
09.01.2019 00:00;99346
09.01.2019 00:15;95390
09.01.2019 00:30;90626
09.01.2019 00:45;86786
09.01.2019 01:00;83864
09.01.2019 01:15;81139
09.01.2019 01:30;78910
09.01.2019 01:45;77663
09.01.2019 02:00;76282
09.01.2019 02:15;75500
09.01.2019 02:30;75259
09.01.2019 02:45;75310
09.01.2019 03:00;74992
09.01.2019 03:15;75660
09.01.2019 03:30;76193
09.01.2019 03:45;76332
09.01.2019 04:00;76069
09.01.2019 04:15;78128
09.01.2019 04:30;79198
09.01.2019 04:45;80462
09.01.2019 05:00;82135
09.01.2019 05:15;84985
09.01.2019 05:30;85875
09.01.2019 05:45;85401
09.01.2019 06:00;86032
09.01.2019 06:15;88722
09.01.2019 06:30;94083
09.01.2019 06:45;97961
09.01.2019 07:00;102160
09.01.2019 07:15;105250
09.01.2019 07:30;107934
09.01.2019 07:45;108999
09.01.2019 08:00;111186
09.01.2019 08:15;112698
09.01.2019 08:30;111470
09.01.2019 08:45;111445
09.01.2019 09:00;111810
09.01.2019 09:15;111822
09.01.2019 09:30;111865
09.01.2019 09:45;111696
09.01.2019 10:00;111566
09.01.2019 10:15;110878
09.01.2019 10:30;111731
09.01.2019 10:45;112238
09.01.2019 11:00;116497
09.01.2019 11:15;117292
09.01.2019 11:30;119807
09.01.2019 11:45;120790
09.01.2019 12:00;122563
09.01.2019 12:15;121584
09.01.2019 12:30;121614
09.01.2019 12:45;124385
09.01.2019 13:00;123786
09.01.2019 13:15;122583
09.01.2019 13:30;118041
09.01.2019 13:45;115013
09.01.2019 14:00;113156
09.01.2019 14:15;115305
09.01.2019 14:30;115778
09.01.2019 14:45;116073
09.01.2019 15:00;115606
09.01.2019 15:15;116339
09.01.2019 15:30;116610
09.01.2019 15:45;116428
09.01.2019 16:00;117125
09.01.2019 16:15;121546
09.01.2019 16:30;124849
09.01.2019 16:45;128819
09.01.2019 17:00;133193
09.01.2019 17:15;142638
09.01.2019 17:30;147215
09.01.2019 17:45;150366
09.01.2019 18:00;151706
09.01.2019 18:15;152499
09.01.2019 18:30;152176
09.01.2019 18:45;151746
09.01.2019 19:00;151271
09.01.2019 19:15;149261
09.01.2019 19:30;147417
09.01.2019 19:45;144155
09.01.2019 20:00;141997
09.01.2019 20:15;138606
09.01.2019 20:30;134198
09.01.2019 20:45;130177
09.01.2019 21:00;127221
09.01.2019 21:15;123091
09.01.2019 21:30;120680
09.01.2019 21:45;125275
09.01.2019 22:00;127965
09.01.2019 22:15;135532
09.01.2019 22:30;132620
09.01.2019 22:45;127159
09.01.2019 23:00;122441
09.01.2019 23:15;116764
09.01.2019 23:30;111851
09.01.2019 23:45;107961
10.01.2019 00:00;103377
10.01.2019 00:15;99111
10.01.2019 00:30;94883
10.01.2019 00:45;91429
10.01.2019 01:00;88115
10.01.2019 01:15;85653
10.01.2019 01:30;83035
10.01.2019 01:45;81036
10.01.2019 02:00;79825
10.01.2019 02:15;79347
10.01.2019 02:30;78326
10.01.2019 02:45;77786
10.01.2019 03:00;77243
10.01.2019 03:15;77426
10.01.2019 03:30;77253
10.01.2019 03:45;77672
10.01.2019 04:00;77911
10.01.2019 04:15;79340
10.01.2019 04:30;80203
10.01.2019 04:45;81600
10.01.2019 05:00;82677
10.01.2019 05:15;85049
10.01.2019 05:30;86163
10.01.2019 05:45;86069
10.01.2019 06:00;86765
10.01.2019 06:15;89146
10.01.2019 06:30;94264
10.01.2019 06:45;99154
10.01.2019 07:00;103139
10.01.2019 07:15;106103
10.01.2019 07:30;109034
10.01.2019 07:45;110664
10.01.2019 08:00;112043
10.01.2019 08:15;113314
10.01.2019 08:30;112172
10.01.2019 08:45;112991
10.01.2019 09:00;112197
10.01.2019 09:15;112354
10.01.2019 09:30;111969
10.01.2019 09:45;112351
10.01.2019 10:00;112624
10.01.2019 10:15;113676
10.01.2019 10:30;113652
10.01.2019 10:45;114164
10.01.2019 11:00;115158
10.01.2019 11:15;117671
10.01.2019 11:30;119489
10.01.2019 11:45;122217
10.01.2019 12:00;122735
10.01.2019 12:15;122677
10.01.2019 12:30;121934
10.01.2019 12:45;121895
10.01.2019 13:00;121736
10.01.2019 13:15;120743
10.01.2019 13:30;120345
10.01.2019 13:45;120501
10.01.2019 14:00;120353
10.01.2019 14:15;118011
10.01.2019 14:30;117138
10.01.2019 14:45;116385
10.01.2019 15:00;115770
10.01.2019 15:15;115228
10.01.2019 15:30;115248
10.01.2019 15:45;114894
10.01.2019 16:00;116675
10.01.2019 16:15;120059
10.01.2019 16:30;122373
10.01.2019 16:45;126683
10.01.2019 17:00;130352
10.01.2019 17:15;138953
10.01.2019 17:30;145604
10.01.2019 17:45;150090
10.01.2019 18:00;152947
10.01.2019 18:15;153844
10.01.2019 18:30;153743
10.01.2019 18:45;152543
10.01.2019 19:00;151362
10.01.2019 19:15;149762
10.01.2019 19:30;147977
10.01.2019 19:45;145530
10.01.2019 20:00;143009
10.01.2019 20:15;140029
10.01.2019 20:30;136519
10.01.2019 20:45;132988
10.01.2019 21:00;128706
10.01.2019 21:15;124974
10.01.2019 21:30;121604
10.01.2019 21:45;127121
10.01.2019 22:00;130285
10.01.2019 22:15;138815
10.01.2019 22:30;136238
10.01.2019 22:45;130942
10.01.2019 23:00;125627
10.01.2019 23:15;120789
10.01.2019 23:30;115770
10.01.2019 23:45;110742
11.01.2019 00:00;107016
11.01.2019 00:15;102704
11.01.2019 00:30;98482
11.01.2019 00:45;95202
11.01.2019 01:00;92373
11.01.2019 01:15;89282
11.01.2019 01:30;86947
11.01.2019 01:45;85094
11.01.2019 02:00;83357
11.01.2019 02:15;82527
11.01.2019 02:30;81781
11.01.2019 02:45;80950
11.01.2019 03:00;80742
11.01.2019 03:15;80709